Time,TemperatureF,DewpointF,PressureIn,WindDirection,WindDirectionDegrees,WindSpeedMPH,WindSpeedGustMPH,Humidity,HourlyPrecipIn,Conditions,Clouds,dailyrainin,SolarRadiationWatts/m^2,SoftwareType,DateUTC
2013-07-25 00:05:00,67.5,50.0,29.88,North,360,0.0,-999.0,54,-99.99,,,0.00,0,weatherlink.com 1.10,2013-07-25 06:05:00,
2013-07-25 00:20:00,67.0,49.0,29.88,North,360,0.0,-999.0,53,-99.99,,,0.00,0,weatherlink.com 1.10,2013-07-25 06:20:00,
2013-07-25 00:35:00,68.6,48.0,29.88,ESE,121,0.0,-999.0,48,-99.99,,,0.00,0,weatherlink.com 1.10,2013-07-25 06:35:00,
2013-07-25 00:50:00,68.8,47.0,29.87,SE,125,0.0,-999.0,46,-99.99,,,0.00,0,weatherlink.com 1.10,2013-07-25 06:50:00,
2013-07-25 01:05:00,68.5,47.0,29.90,NE,49,0.0,-999.0,46,-99.99,,,0.00,0,weatherlink.com 1.10,2013-07-25 07:05:00,
2013-07-25 01:20:00,66.4,47.0,29.89,ESE,104,13.0,-999.0,50,-99.99,,,0.00,0,weatherlink.com 1.10,2013-07-25 07:20:00,
2013-07-25 01:35:00,68.0,46.0,29.89,East,84,0.0,-999.0,46,-99.99,,,0.00,0,weatherlink.com 1.10,2013-07-25 07:35:00,
2013-07-25 01:50:00,68.2,46.0,29.89,ESE,123,0.0,-999.0,45,-99.99,,,0.00,0,weatherlink.com 1.10,2013-07-25 07:50:00,
2013-07-25 02:05:00,67.9,48.0,29.89,SE,126,0.0,-999.0,49,-99.99,,,0.00,0,weatherlink.com 1.10,2013-07-25 08:05:00,
2013-07-25 02:20:00,66.0,46.0,29.89,SE,126,0.0,-999.0,48,-99.99,,,0.00,0,weatherlink.com 1.10,2013-07-25 08:20:00,
2013-07-25 02:35:00,65.9,46.0,29.89,SE,126,0.0,-999.0,49,-99.99,,,0.00,0,weatherlink.com 1.10,2013-07-25 08:35:00,
2013-07-25 02:50:00,66.0,47.0,29.89,SE,126,0.0,-999.0,51,-99.99,,,0.00,0,weatherlink.com 1.10,2013-07-25 08:50:00,
2013-07-25 03:05:00,65.7,47.0,29.89,NW,313,0.0,-999.0,52,-99.99,,,0.00,0,weatherlink.com 1.10,2013-07-25 09:05:00,
2013-07-25 03:20:00,65.4,47.0,29.89,NW,309,0.0,-999.0,51,-99.99,,,0.00,0,weatherlink.com 1.10,2013-07-25 09:20:00,
2013-07-25 03:35:00,66.1,47.0,29.89,NW,309,0.0,-999.0,50,-99.99,,,0.00,0,weatherlink.com 1.10,2013-07-25 09:35:00,
2013-07-25 03:50:00,64.0,46.0,29.89,NNE,17,4.0,-999.0,53,-99.99,,,0.00,0,weatherlink.com 1.10,2013-07-25 09:50:00,
2013-07-25 04:06:00,63.1,45.0,29.89,NNW,338,0.0,-999.0,53,-99.99,,,0.00,0,weatherlink.com 1.10,2013-07-25 10:06:00,
2013-07-25 04:21:00,62.2,46.0,29.89,North,360,3.0,-999.0,56,-99.99,,,0.00,0,weatherlink.com 1.10,2013-07-25 10:21:00,
2013-07-25 04:36:00,60.4,47.0,29.91,North,360,10.0,-999.0,62,-99.99,,,0.00,0,weatherlink.com 1.10,2013-07-25 10:36:00,
2013-07-25 04:51:00,59.3,47.0,29.92,NE,36,8.0,-999.0,65,-99.99,,,0.00,0,weatherlink.com 1.10,2013-07-25 10:51:00,
2013-07-25 05:06:00,63.9,44.0,29.92,North,11,19.0,-999.0,49,-99.99,,,0.00,0,weatherlink.com 1.10,2013-07-25 11:06:00,
2013-07-25 05:21:00,64.6,44.0,29.93,NNE,16,10.0,-999.0,48,-99.99,,,0.00,0,weatherlink.com 1.10,2013-07-25 11:21:00,
2013-07-25 05:36:00,64.4,45.0,29.93,North,360,11.0,-999.0,49,-99.99,,,0.00,0,weatherlink.com 1.10,2013-07-25 11:36:00,
2013-07-25 05:51:00,64.4,46.0,29.94,NNE,20,16.0,-999.0,51,-99.99,,,0.00,0,weatherlink.com 1.10,2013-07-25 11:51:00,
2013-07-25 06:06:00,64.6,46.0,29.95,North,360,19.0,-999.0,51,-99.99,,,0.00,9,weatherlink.com 1.10,2013-07-25 12:06:00,
2013-07-25 06:21:00,65.0,46.0,29.96,NNE,17,14.0,-999.0,50,-99.99,,,0.00,12,weatherlink.com 1.10,2013-07-25 12:21:00,
2013-07-25 06:36:00,65.0,46.0,29.98,North,350,9.0,-999.0,50,-99.99,,,0.00,21,weatherlink.com 1.10,2013-07-25 12:36:00,
2013-07-25 06:51:00,65.0,46.0,30.00,WNW,288,0.0,-999.0,51,-99.99,,,0.00,39,weatherlink.com 1.10,2013-07-25 12:51:00,
2013-07-25 07:06:00,64.0,46.0,30.01,WSW,242,0.0,-999.0,52,-99.99,,,0.00,60,weatherlink.com 1.10,2013-07-25 13:06:00,
2013-07-25 07:21:00,63.9,46.0,30.02,WSW,244,0.0,-999.0,52,-99.99,,,0.00,77,weatherlink.com 1.10,2013-07-25 13:21:00,
2013-07-25 07:36:00,64.3,46.0,30.02,SSW,200,0.0,-999.0,52,-99.99,,,0.00,90,weatherlink.com 1.10,2013-07-25 13:36:00,
2013-07-25 07:51:00,65.2,46.0,30.03,ESE,112,0.0,-999.0,51,-99.99,,,0.00,118,weatherlink.com 1.10,2013-07-25 13:51:00,
2013-07-25 08:06:00,66.6,47.0,30.04,NE,55,1.0,-999.0,49,-99.99,,,0.00,309,weatherlink.com 1.10,2013-07-25 14:06:00,
2013-07-25 08:21:00,68.1,47.0,30.05,ESE,119,0.0,-999.0,47,-99.99,,,0.00,334,weatherlink.com 1.10,2013-07-25 14:21:00,
2013-07-25 08:36:00,67.1,48.0,30.05,SSE,165,0.0,-999.0,50,-99.99,,,0.00,387,weatherlink.com 1.10,2013-07-25 14:36:00,
2013-07-25 08:51:00,68.7,48.0,30.05,East,97,4.0,-999.0,48,-99.99,,,0.00,417,weatherlink.com 1.10,2013-07-25 14:51:00,
2013-07-25 09:07:00,70.3,47.0,30.06,NE,55,7.0,-999.0,44,-99.99,,,0.00,475,weatherlink.com 1.10,2013-07-25 15:07:00,
2013-07-25 09:22:00,71.5,48.0,30.05,NE,46,7.0,-999.0,43,-99.99,,,0.00,520,weatherlink.com 1.10,2013-07-25 15:22:00,
2013-07-25 09:37:00,70.9,48.0,30.05,ENE,73,5.0,-999.0,44,-99.99,,,0.00,494,weatherlink.com 1.10,2013-07-25 15:37:00,
2013-07-25 09:52:00,70.3,47.0,30.05,ENE,75,1.0,-999.0,43,-99.99,,,0.00,380,weatherlink.com 1.10,2013-07-25 15:52:00,
2013-07-25 10:07:00,70.7,47.0,30.06,ESE,111,5.0,-999.0,43,-99.99,,,0.00,396,weatherlink.com 1.10,2013-07-25 16:07:00,
2013-07-25 10:22:00,70.8,47.0,30.06,ESE,113,7.0,-999.0,43,-99.99,,,0.00,605,weatherlink.com 1.10,2013-07-25 16:22:00,
2013-07-25 10:37:00,72.2,48.0,30.07,SE,144,0.0,-999.0,42,-99.99,,,0.00,712,weatherlink.com 1.10,2013-07-25 16:37:00,
2013-07-25 10:52:00,71.4,51.0,30.07,ESE,113,0.0,-999.0,48,-99.99,,,0.00,378,weatherlink.com 1.10,2013-07-25 16:52:00,
2013-07-25 11:07:00,71.3,49.0,30.07,ESE,111,0.0,-999.0,46,-99.99,,,0.00,285,weatherlink.com 1.10,2013-07-25 17:07:00,
2013-07-25 11:22:00,71.0,49.0,30.07,SE,134,0.0,-999.0,46,-99.99,,,0.00,255,weatherlink.com 1.10,2013-07-25 17:22:00,
2013-07-25 11:37:00,72.1,50.0,30.06,SW,215,0.0,-999.0,46,-99.99,,,0.00,861,weatherlink.com 1.10,2013-07-25 17:37:00,
2013-07-25 11:52:00,73.0,50.0,30.06,SW,230,0.0,-999.0,44,-99.99,,,0.00,689,weatherlink.com 1.10,2013-07-25 17:52:00,
2013-07-25 12:07:00,73.2,49.0,30.06,SW,219,5.0,-999.0,43,-99.99,,,0.00,671,weatherlink.com 1.10,2013-07-25 18:07:00,
2013-07-25 12:22:00,74.0,49.0,30.05,SW,234,0.0,-999.0,42,-99.99,,,0.00,772,weatherlink.com 1.10,2013-07-25 18:22:00,
2013-07-25 12:37:00,75.1,49.0,30.05,SSW,197,0.0,-999.0,40,-99.99,,,0.00,543,weatherlink.com 1.10,2013-07-25 18:37:00,
2013-07-25 12:52:00,76.1,49.0,30.04,SSE,167,0.0,-999.0,39,-99.99,,,0.00,944,weatherlink.com 1.10,2013-07-25 18:52:00,
2013-07-25 13:07:00,77.0,49.0,30.03,West,276,0.0,-999.0,38,-99.99,,,0.00,1049,weatherlink.com 1.10,2013-07-25 19:07:00,
2013-07-25 13:22:00,78.5,48.0,30.03,NNE,30,5.0,-999.0,34,-99.99,,,0.00,388,weatherlink.com 1.10,2013-07-25 19:22:00,
2013-07-25 13:38:00,79.3,49.0,30.03,NNW,346,4.0,-999.0,34,-99.99,,,0.00,914,weatherlink.com 1.10,2013-07-25 19:38:00,
2013-07-25 13:52:00,79.5,48.0,30.03,North,11,0.0,-999.0,33,-99.99,,,0.00,304,weatherlink.com 1.10,2013-07-25 19:52:00,
2013-07-25 14:07:00,78.0,48.0,30.02,NNE,31,0.0,-999.0,35,-99.99,,,0.00,237,weatherlink.com 1.10,2013-07-25 20:07:00,
2013-07-25 14:22:00,77.9,49.0,30.02,NNW,341,0.0,-999.0,36,-99.99,,,0.00,471,weatherlink.com 1.10,2013-07-25 20:22:00,
2013-07-25 14:38:00,79.0,49.0,30.03,North,355,0.0,-999.0,35,-99.99,,,0.00,631,weatherlink.com 1.10,2013-07-25 20:38:00,
2013-07-25 14:52:00,79.1,49.0,30.03,WSW,256,3.0,-999.0,35,-99.99,,,0.00,334,weatherlink.com 1.10,2013-07-25 20:52:00,
2013-07-25 15:08:00,78.7,49.0,30.03,WSW,257,6.0,-999.0,35,-99.99,,,0.00,304,weatherlink.com 1.10,2013-07-25 21:08:00,
2013-07-25 15:22:00,78.9,50.0,30.03,WNW,290,0.0,-999.0,36,-99.99,,,0.00,348,weatherlink.com 1.10,2013-07-25 21:22:00,
2013-07-25 15:37:00,79.4,48.0,30.03,NE,34,0.0,-999.0,33,-99.99,,,0.00,297,weatherlink.com 1.10,2013-07-25 21:37:00,
2013-07-25 15:53:00,79.1,48.0,30.03,NE,42,0.0,-999.0,33,-99.99,,,0.00,246,weatherlink.com 1.10,2013-07-25 21:53:00,
2013-07-25 16:07:00,78.8,47.0,30.03,NNW,331,0.0,-999.0,32,-99.99,,,0.00,220,weatherlink.com 1.10,2013-07-25 22:07:00,
2013-07-25 16:22:00,80.8,47.0,30.03,North,355,0.0,-999.0,30,-99.99,,,0.00,954,weatherlink.com 1.10,2013-07-25 22:22:00,
2013-07-25 16:37:00,81.9,46.0,30.03,North,360,7.0,-999.0,28,-99.99,,,0.00,763,weatherlink.com 1.10,2013-07-25 22:37:00,
2013-07-25 16:53:00,82.4,46.0,30.03,NNW,331,7.0,-999.0,28,-99.99,,,0.00,301,weatherlink.com 1.10,2013-07-25 22:53:00,
2013-07-25 17:08:00,81.7,43.0,30.03,NW,325,5.0,-999.0,25,-99.99,,,0.00,162,weatherlink.com 1.10,2013-07-25 23:08:00,
2013-07-25 17:22:00,79.8,45.0,30.03,NNW,336,4.0,-999.0,29,-99.99,,,0.00,151,weatherlink.com 1.10,2013-07-25 23:22:00,
2013-07-25 17:38:00,78.7,45.0,30.02,NNE,12,0.0,-999.0,30,-99.99,,,0.00,237,weatherlink.com 1.10,2013-07-25 23:38:00,
2013-07-25 17:53:00,80.1,45.0,30.02,NW,320,1.0,-999.0,29,-99.99,,,0.00,450,weatherlink.com 1.10,2013-07-25 23:53:00,
2013-07-25 18:08:00,81.3,44.0,30.01,North,355,1.0,-999.0,27,-99.99,,,0.00,392,weatherlink.com 1.10,2013-07-26 00:08:00,
2013-07-25 18:23:00,81.4,43.0,30.01,NNW,339,0.0,-999.0,26,-99.99,,,0.00,95,weatherlink.com 1.10,2013-07-26 00:23:00,
2013-07-25 18:38:00,80.7,45.0,30.02,NNW,338,0.0,-999.0,28,-99.99,,,0.00,118,weatherlink.com 1.10,2013-07-26 00:38:00,
2013-07-25 18:53:00,79.8,45.0,30.02,North,5,0.0,-999.0,29,-99.99,,,0.00,162,weatherlink.com 1.10,2013-07-26 00:53:00,
2013-07-25 19:08:00,79.1,45.0,30.02,North,11,0.0,-999.0,30,-99.99,,,0.00,107,weatherlink.com 1.10,2013-07-26 01:08:00,
2013-07-25 19:23:00,78.7,45.0,30.02,South,175,0.0,-999.0,30,-99.99,,,0.00,109,weatherlink.com 1.10,2013-07-26 01:23:00,
2013-07-25 19:38:00,78.2,43.0,30.02,SSE,165,0.0,-999.0,29,-99.99,,,0.00,47,weatherlink.com 1.10,2013-07-26 01:38:00,
2013-07-25 19:53:00,77.9,44.0,30.01,SE,138,0.0,-999.0,30,-99.99,,,0.00,30,weatherlink.com 1.10,2013-07-26 01:53:00,
2013-07-25 20:08:00,77.7,44.0,30.02,SSE,150,8.0,-999.0,30,-99.99,,,0.00,28,weatherlink.com 1.10,2013-07-26 02:08:00,
2013-07-25 20:23:00,74.9,46.0,30.03,SE,141,8.0,-999.0,36,-99.99,,,0.00,21,weatherlink.com 1.10,2013-07-26 02:23:00,
2013-07-25 20:38:00,73.0,46.0,30.04,SE,134,9.0,-999.0,38,-99.99,,,0.00,5,weatherlink.com 1.10,2013-07-26 02:38:00,
2013-07-25 20:53:00,72.0,46.0,30.05,SE,128,14.0,-999.0,40,-99.99,,,0.00,0,weatherlink.com 1.10,2013-07-26 02:53:00,
2013-07-25 21:08:00,71.5,46.0,30.05,SE,132,7.0,-999.0,40,-99.99,,,0.00,0,weatherlink.com 1.10,2013-07-26 03:08:00,
2013-07-25 21:23:00,70.5,46.0,30.05,SE,145,0.0,-999.0,41,-99.99,,,0.00,0,weatherlink.com 1.10,2013-07-26 03:23:00,
2013-07-25 21:38:00,70.0,45.0,30.06,SE,127,5.0,-999.0,41,-99.99,,,0.00,0,weatherlink.com 1.10,2013-07-26 03:38:00,
2013-07-25 21:53:00,69.0,44.0,30.07,SSE,149,2.0,-999.0,41,-99.99,,,0.00,0,weatherlink.com 1.10,2013-07-26 03:53:00,
2013-07-25 22:08:00,68.0,44.0,30.07,SSE,152,0.0,-999.0,42,-99.99,,,0.00,0,weatherlink.com 1.10,2013-07-26 04:08:00,
2013-07-25 22:23:00,67.4,44.0,30.09,SE,136,5.0,-999.0,43,-99.99,,,0.00,0,weatherlink.com 1.10,2013-07-26 04:23:00,
2013-07-25 22:38:00,67.5,44.0,30.09,SSE,151,0.0,-999.0,43,-99.99,,,0.00,0,weatherlink.com 1.10,2013-07-26 04:38:00,
2013-07-25 22:53:00,67.5,44.0,30.11,SE,132,0.0,-999.0,43,-99.99,,,0.00,0,weatherlink.com 1.10,2013-07-26 04:53:00,
2013-07-25 23:08:00,66.5,45.0,30.11,NNE,28,0.0,-999.0,46,-99.99,,,0.00,0,weatherlink.com 1.10,2013-07-26 05:08:00,
2013-07-25 23:23:00,64.7,44.0,30.11,ENE,70,4.0,-999.0,48,-99.99,,,0.00,0,weatherlink.com 1.10,2013-07-26 05:23:00,
2013-07-25 23:38:00,66.1,43.0,30.10,SE,132,0.0,-999.0,44,-99.99,,,0.00,0,weatherlink.com 1.10,2013-07-26 05:38:00,
2013-07-25 23:53:00,66.3,43.0,30.09,SSE,160,8.0,-999.0,43,-99.99,,,0.00,0,weatherlink.com 1.10,2013-07-26 05:53:00,